User: anonymous   Login
Location: Hawks Ness
(60.2333°N, 1.1667°W)
Time: 09:25:37
(UTC+00:00)
Language:

USA 229 - Orbit

View from above orbital plane
View from above orbital plane
View from above satellite
View from above satellite

Ground track
Ground track

The orbit data is extracted from the following two-line orbital elements,

1 37386U 11014A   19345.77523005 0.00000000  00000-0  00000-0 0    08
2 37386  63.4299 226.6300 0144998   0.3254 359.6746 13.40793795    08
Epoch (UTC): 11 December 2019 18:36:19
Eccentricity: 0.0144998
inclination: 63.4299°
perigee height: 998 km
apogee height: 1215 km
right ascension of ascending node: 226.6300°
argument of perigee: 0.3254°
revolutions per day: 13.40793795
mean anomaly at epoch: 359.6746°
orbit number at epoch: 0

The dashed part of the orbit path shows where the satellite is in the earth's shadow,  

DLR